Memphis, MO

6:57 AM CDT on September 05, 2015 (GMT -0500)
APRSWXNET | | Change Station
CLOSE
Current Station
Personal Weather Station
Location: Lancaster, MO
Elevation: 931 ft
Nearby Weather Stations

Elev 931 ft 40.52 °N, 92.52 °W | Updated 22 minutes ago

Clear
Clear
69 °F
Feels Like 69 °F
N
0
Wind Variable Wind from SSE
Gusts 0.0 mph

Today
High -- | Low -- °F
--% Chance of Precip.
Yesterday
High -- | Low -- °F
Precip. -- in
6:39 AM 7:34 PM
Waning Gibbous, 49% visible
Pressure 30.05 in
Visibility 6.0 miles
Clouds Clear
Dew Point 68 °F
Humidity 95%
Rainfall in
Snow Depth Not available.
UV 0 out of 12
Pollen 9.00 out of 12
Air Quality Not available.
Flu Activity Not available.
METAR KIRK 051155Z AUTO 19004KT 6SM BR CLR 22/19 A3007 RMK AO2 SLP176 T02170194 10228 20206 53008
Pressure 30.05 in
Visibility 6.0 miles
Clouds Clear
Dew Point 68 °F
Humidity 95%
Rainfall in
Snow Depth Not available.
UV 0 out of 12
Pollen 9.00 out of 12
Air Quality Not available.
Flu Activity Not available.
METAR KIRK 051155Z AUTO 19004KT 6SM BR CLR 22/19 A3007 RMK AO2 SLP176 T02170194 10228 20206 53008

10-Day Weather Forecast

×

Almanac

Astronomy

Sep. 05, 2015 Rise Set
Actual Time
Civil Twilight
Nautical Twilight
Astronomical Twilight
Moon
Length of Visible Light
Length of Day
Tomorrow will be .
, % of the Moon is Illuminated

Today's Extremes

State Highs State Lows

Community

WunderPhotos

Upload Photos

1,852,449 photos uploaded!

WunderBlogs® & News

Nearby

Air Quality

  Air Quality AQ Index Pollutant
Not available.

Snow Depth

Station Depth Elevation

Earthquake Activity

City Distance Mag. Time & Date
Minimum magnitude displayed is 2.5.

Coastal Water Temperatures

Place Temperature

Stations

Nearby Weather Stations

Station Location Temp. Windchill Dew Point Humidity Wind Precip. Elev Updated Type